Project,Study,Ord_Occ,Event_Num,Cast_ID,Date_Time_UTC,Date_Time_PST,Lat_Dec,Lon_Dec,Sta_ID,Line,Sta,Depth,Pressure,PrQ,Temp1,Temp1Q,Temp2,Temp2Q,TempAve,Salt1,Salt1Q,Salt1_Corr,Salt2,Salt2Q,Salt2_Corr,SaltAve_Corr,Ox1,Ox1Q,Ox1_CruiseCorr,Ox1_StaCorr,Ox2,Ox2Q,Ox2_CruiseCorr,Ox2_StaCorr,OxAve_StaCorr,Ox1uM,Ox1uM_CruiseCorr,Ox1uM_StaCorr,Ox2uM,Ox2uM_CruiseCorr,Ox2uM_StaCorr,OxAveuM_StaCorr,FluorV,FluorQ,EstChl_CruiseCorr,EstChl_StaCorr,ISUSV,ISUSQ,EstNO3_CruiseCorr,EstNO3_StaCorr,SigThetaTS1,SigThetaTS1Q,SigThetaTS2,SigThetaTS2Q,BAT,XMiss,TransQ,pH,pHQ,SPAR,SPARQ,PAR,PARQ,PoT1,PoT2,DynHt,SVA,OxSat1,OxSat2,BTL_Depth,BTL_Temp,SaltB,OxB,OxBuM,Chl-a,Phaeo,NO3,NO2,NH4,PO4,SIL
CalCOFI,2007SR,043,45,2007_043u,21-Jul-2020 03:53:56,20-Jul-2020 19:53:56,32.32284,-121.71330,086.7 080.0,086.7,080.0,517.000,521.297,,6.1011,,6.1009,,6.1010,34.2820,,34.2822,34.2835,,34.2851,34.2837,0.3381,,0.3356,0.3442,2.0180,,0.8764,0.6531,0.4987,14.702,14.8593,15.1967,87.757,,31.2350,23.2159,0.0335,,,,-99.0,,-99.0,,26.9783,,26.9795,,0.6375,85.2677,,7.533,,1.9043E+00,,1.0000E-12,,6.0553,6.0550,0.9911,,4.882,29.139,,,,,,,,,,,,
CalCOFI,2007SR,043,45,2007_043u,21-Jul-2020 03:53:58,20-Jul-2020 19:53:58,32.32284,-121.71331,086.7 080.0,086.7,080.0,516.000,520.288,,6.1015,,6.1013,,6.1014,34.2815,,34.2817,34.2830,,34.2846,34.2832,0.3379,,0.3354,0.3440,2.0180,,0.8764,0.6531,0.4986,14.696,14.8531,15.1904,87.754,,31.2276,23.2090,0.0327,,,,-99.0,,-99.0,,26.9779,,26.9790,,0.6375,85.2677,,7.533,,1.9043E+00,,1.0000E-12,,6.0557,6.0555,0.9911,,4.880,29.139,516,6.102,34.2810,0.317,13.82,,,39.80,0.00,0.16,3.15,77.30
CalCOFI,2007SR,043,45,2007_043u,21-Jul-2020 03:54:11,20-Jul-2020 19:54:11,32.32284,-121.71332,086.7 080.0,086.7,080.0,515.000,519.278,,6.1011,,6.1005,,6.1008,34.2812,,34.2814,34.2827,,34.2843,34.2829,0.3386,,0.3361,0.3447,2.0056,,0.8468,0.6223,0.4835,14.726,14.8844,15.2218,87.215,,29.9098,22.5658,0.0335,,,,0.1156,,0.0000,,26.9777,,26.9789,,0.6375,85.2686,,7.533,,1.9043E+00,,1.0000E-12,,6.0554,6.0548,0.9928,,4.890,28.959,,,,,,,,,,,,
CalCOFI,2007SR,043,45,2007_043u,21-Jul-2020 03:54:20,20-Jul-2020 19:54:20,32.32284,-121.71332,086.7 080.0,086.7,080.0,514.000,518.269,,6.0973,,6.0961,,6.0967,34.2795,,34.2797,34.2807,,34.2823,34.2810,0.3458,,0.3436,0.3522,1.9975,,0.8274,0.6021,0.4772,15.037,15.2090,15.5470,86.866,,29.0566,22.3018,0.0333,,,,0.1083,,0.0000,,26.9768,,26.9778,,0.6372,85.2748,,7.533,,1.9043E+00,,1.0000E-12,,6.0517,6.0506,0.9944,,4.993,28.840,,,,,,,,,,,,
CalCOFI,2007SR,043,45,2007_043u,21-Jul-2020 03:54:21,20-Jul-2020 19:54:21,32.32286,-121.71332,086.7 080.0,086.7,080.0,513.000,517.259,,6.0924,,6.0910,,6.0917,34.2774,,34.2776,34.2782,,34.2798,34.2787,0.3428,,0.3405,0.3491,1.9967,,0.8255,0.6001,0.4746,14.908,15.0744,15.4121,86.830,,28.9686,22.1904,0.0334,,,,0.0793,,0.0000,,26.9757,,26.9765,,0.6374,85.2705,,7.533,,1.9043E+00,,1.0000E-12,,6.0470,6.0456,0.9944,,4.949,28.824,,,,,,,,,,,,
CalCOFI,2007SR,043,45,2007_043u,21-Jul-2020 03:54:22,20-Jul-2020 19:54:22,32.32286,-121.71332,086.7 080.0,086.7,080.0,512.000,516.249,,6.0885,,6.0887,,6.0886,34.2756,,34.2758,34.2771,,34.2787,34.2773,0.3486,,0.3466,0.3552,1.9982,,0.8291,0.6039,0.4796,15.159,15.3364,15.6746,86.895,,29.1275,22.4011,0.0335,,,,0.0553,,0.0000,,26.9748,,26.9759,,0.6375,85.2677,,7.533,,1.9043E+00,,1.0000E-12,,6.0432,6.0434,0.9944,,5.032,28.844,,,,,,,,,,,,
CalCOFI,2007SR,043,45,2007_043u,21-Jul-2020 03:54:24,20-Jul-2020 19:54:24,32.32286,-121.71332,086.7 080.0,086.7,080.0,511.000,515.240,,6.0960,,6.0956,,6.0958,34.2755,,34.2757,34.2769,,34.2785,34.2771,0.3469,,0.3448,0.3534,1.9946,,0.8205,0.5949,0.4742,15.085,15.2591,15.5972,86.739,,28.7461,22.1717,0.0328,,,,0.0348,,0.0000,,26.9737,,26.9749,,0.6369,85.2800,,7.533,,1.9043E+00,,1.0000E-12,,6.0507,6.0503,0.9944,,5.008,28.797,,,,,,,,,,,,
CalCOFI,2007SR,043,45,2007_043u,21-Jul-2020 03:54:25,20-Jul-2020 19:54:25,32.32286,-121.71330,086.7 080.0,086.7,080.0,510.000,514.230,,6.1028,,6.1033,,6.1031,34.2760,,34.2762,34.2775,,34.2791,34.2777,0.3518,,0.3499,0.3585,1.9865,,0.8012,0.5748,0.4667,15.299,15.4825,15.8210,86.386,,27.8830,21.8520,0.0337,,,,0.0165,,0.0000,,26.9732,,26.9744,,0.6372,85.2745,,7.533,,1.9043E+00,,1.0000E-12,,6.0576,6.0581,0.9944,,5.080,28.685,,,,,,,,,,,,
CalCOFI,2007SR,043,45,2007_043u,21-Jul-2020 03:54:26,20-Jul-2020 19:54:26,32.32286,-121.71330,086.7 080.0,086.7,080.0,509.000,513.221,,6.1117,,6.1121,,6.1119,34.2761,,34.2763,34.2775,,34.2791,34.2777,0.3519,,0.3500,0.3586,1.9912,,0.8124,0.5864,0.4725,15.303,15.4867,15.8252,86.592,,28.3867,22.1060,0.0338,,,,0.0059,,0.0000,,26.9722,,26.9733,,0.6367,85.2844,,7.533,,1.9043E+00,,1.0000E-12,,6.0665,6.0669,0.9944,,5.082,28.759,,,,,,,,,,,,
CalCOFI,2007SR,043,45,2007_043u,21-Jul-2020 03:54:27,20-Jul-2020 19:54:27,32.32286,-121.71330,086.7 080.0,086.7,080.0,508.000,512.211,,6.1200,,6.1199,,6.1200,34.2742,,34.2744,34.2756,,34.2772,34.2758,0.3561,,0.3544,0.3630,1.9905,,0.8107,0.5847,0.4739,15.485,15.6767,16.0155,86.561,,28.3109,22.1632,0.0322,,,,0.0011,,0.0000,,26.9696,,26.9708,,0.6375,85.2684,,7.533,,1.9043E+00,,1.0000E-12,,6.0749,6.0749,0.9944,,5.144,28.753,,,,,,,,,,,,
CalCOFI,2007SR,043,45,2007_043u,21-Jul-2020 03:54:28,20-Jul-2020 19:54:28,32.32286,-121.71330,086.7 080.0,086.7,080.0,507.000,511.202,,6.1248,,6.1243,,6.1246,34.2738,,34.2740,34.2753,,34.2769,34.2755,0.3556,,0.3539,0.3625,1.9889,,0.8069,0.5807,0.4716,15.466,15.6569,15.9956,86.493,,28.1446,22.0701,0.0326,,,,-99.0,,-99.0,,26.9687,,26.9699,,0.6375,85.2677,,7.533,,1.9043E+00,,1.0000E-12,,6.0798,6.0793,0.9944,,5.138,28.734,,,,,,,,,,,,
CalCOFI,2007SR,043,45,2007_043u,21-Jul-2020 03:54:29,20-Jul-2020 19:54:29,32.32286,-121.71331,086.7 080.0,086.7,080.0,506.000,510.192,,6.1282,,6.1283,,6.1283,34.2741,,34.2743,34.2755,,34.2771,34.2757,0.3523,,0.3504,0.3590,1.9854,,0.7985,0.5720,0.4655,15.319,15.5034,15.8419,86.339,,27.7681,21.8050,0.0327,,,,7.6822E-08,,0.0000,,26.9685,,26.9695,,0.6373,85.2730,,7.533,,1.9043E+00,,1.0000E-12,,6.0832,6.0834,0.9944,,5.089,28.685,,,,,,,,,,,,
CalCOFI,2007SR,043,45,2007_043u,21-Jul-2020 03:54:30,20-Jul-2020 19:54:30,32.32286,-121.71332,086.7 080.0,086.7,080.0,505.000,509.183,,6.1318,,6.1319,,6.1319,34.2739,,34.2741,34.2752,,34.2768,34.2755,0.3522,,0.3503,0.3589,1.9860,,0.8000,0.5735,0.4662,15.314,15.4982,15.8367,86.364,,27.8292,21.8330,0.0337,,,,-99.0,,-99.0,,26.9678,,26.9689,,0.6373,85.2728,,7.533,,1.9043E+00,,1.0000E-12,,6.0869,6.0871,0.9944,,5.088,28.696,,,,,,,,,,,,
CalCOFI,2007SR,043,45,2007_043u,21-Jul-2020 03:54:31,20-Jul-2020 19:54:31,32.32286,-121.71332,086.7 080.0,086.7,080.0,504.000,508.173,,6.1334,,6.1335,,6.1335,34.2736,,34.2738,34.2748,,34.2764,34.2751,0.3561,,0.3544,0.3630,1.9778,,0.7804,0.5531,0.4581,15.488,15.6798,16.0186,86.010,,26.9637,21.4912,0.0341,,,,-99.0,,-99.0,,26.9674,,26.9683,,0.6369,85.2814,,7.533,,1.9043E+00,,1.0000E-12,,6.0887,6.0888,0.9944,,5.146,28.579,,,,,,,,,,,,
CalCOFI,2007SR,043,45,2007_043u,21-Jul-2020 03:54:32,20-Jul-2020 19:54:32,32.32286,-121.71332,086.7 080.0,086.7,080.0,503.000,507.164,,6.1347,,6.1348,,6.1348,34.2730,,34.2732,34.2743,,34.2759,34.2746,0.3635,,0.3621,0.3708,1.9831,,0.7931,0.5663,0.4686,15.808,16.0139,16.3533,86.239,,27.5236,21.9385,0.0333,,,,-99.0,,-99.0,,26.9667,,26.9678,,0.6373,85.2727,,7.533,,1.9043E+00,,1.0000E-12,,6.0901,6.0901,0.9944,,5.253,28.656,,,,,,,,,,,,
CalCOFI,2007SR,043,45,2007_043u,21-Jul-2020 03:54:33,20-Jul-2020 19:54:33,32.32286,-121.71332,086.7 080.0,086.7,080.0,502.000,506.154,,6.1359,,6.1363,,6.1361,34.2727,,34.2729,34.2740,,34.2756,34.2743,0.3641,,0.3627,0.3714,1.9831,,0.7931,0.5663,0.4689,15.835,16.0421,16.3815,86.239,,27.5236,21.9526,0.0330,,,,-99.0,,-99.0,,26.9663,,26.9673,,0.6370,85.2790,,7.533,,1.9043E+00,,1.0000E-12,,6.0913,6.0917,0.9944,,5.262,28.657,,,,,,,,,,,,
CalCOFI,2007SR,043,45,2007_043u,21-Jul-2020 03:54:34,20-Jul-2020 19:54:34,32.32286,-121.71332,086.7 080.0,086.7,080.0,501.000,505.145,,6.1472,,6.1471,,6.1472,34.2709,,34.2711,34.2720,,34.2736,34.2724,0.3645,,0.3632,0.3718,1.9823,,0.7911,0.5643,0.4681,15.850,16.0577,16.3972,86.205,,27.4405,21.9189,0.0342,,,,-99.0,,-99.0,,26.9634,,26.9643,,0.6364,85.2915,,7.533,,1.9043E+00,,1.0000E-12,,6.1027,6.1026,0.9944,,5.268,28.652,,,,,,,,,,,,
CalCOFI,2007SR,043,45,2007_043u,21-Jul-2020 03:54:35,20-Jul-2020 19:54:35,32.32286,-121.71332,086.7 080.0,086.7,080.0,500.000,504.135,,6.1564,,6.1561,,6.1563,34.2697,,34.2699,34.2711,,34.2727,34.2713,0.3708,,0.3697,0.3784,1.9798,,0.7852,0.5581,0.4683,16.123,16.3427,16.6826,86.095,,27.1716,21.9271,0.0326,,,,-99.0,,-99.0,,26.9613,,26.9625,,0.6383,85.2503,,7.533,,1.9043E+00,,1.0000E-12,,6.1119,6.1116,0.9944,,5.360,28.621,,,,,,,,,,,,
CalCOFI,2007SR,043,45,2007_043u,21-Jul-2020 03:54:36,20-Jul-2020 19:54:36,32.32286,-121.71332,086.7 080.0,086.7,080.0,499.000,503.126,,6.1632,,6.1629,,6.1631,34.2691,,34.2693,34.2704,,34.2720,34.2707,0.3753,,0.3745,0.3831,1.9802,,0.7861,0.5591,0.4711,16.323,16.5515,16.8918,86.114,,27.2180,22.0549,0.0323,,,,-99.0,,-99.0,,26.9600,,26.9611,,0.6375,85.2676,,7.533,,1.9043E+00,,1.0000E-12,,6.1188,6.1185,0.9944,,5.427,28.632,,,,,,,,,,,,
CalCOFI,2007SR,043,45,2007_043u,21-Jul-2020 03:54:37,20-Jul-2020 19:54:37,32.32286,-121.71332,086.7 080.0,086.7,080.0,498.000,502.116,,6.1813,,6.1807,,6.1810,34.2681,,34.2683,34.2695,,34.2711,34.2697,0.3764,,0.3756,0.3843,1.9764,,0.7771,0.5496,0.4670,16.369,16.5995,16.9399,85.949,,26.8146,21.8773,0.0341,,,,-99.0,,-99.0,,26.9569,,26.9581,,0.6375,85.2677,,7.533,,1.9043E+00,,1.0000E-12,,6.1369,6.1363,0.9944,,5.445,28.589,,,,,,,,,,,,
CalCOFI,2007SR,043,45,2007_043u,21-Jul-2020 03:54:38,20-Jul-2020 19:54:38,32.32286,-121.71332,086.7 080.0,086.7,080.0,497.000,501.107,,6.1898,,6.1898,,6.1898,34.2673,,34.2675,34.2687,,34.2703,34.2689,0.3736,,0.3727,0.3813,1.9735,,0.7701,0.5424,0.4619,16.246,16.4711,16.8113,85.822,,26.5041,21.6577,0.0337,,,,-99.0,,-99.0,,26.9552,,26.9562,,0.6375,85.2677,,7.533,,1.9043E+00,,1.0000E-12,,6.1455,6.1455,0.9944,,5.405,28.553,,,,,,,,,,,,
CalCOFI,2007SR,043,45,2007_043u,21-Jul-2020 03:54:39,20-Jul-2020 19:54:39,32.32286,-121.71332,086.7 080.0,086.7,080.0,496.000,500.097,,6.2004,,6.2007,,6.2006,34.2671,,34.2673,34.2683,,34.2699,34.2686,0.3781,,0.3774,0.3861,1.9760,,0.7761,0.5486,0.4674,16.442,16.6757,17.0162,85.931,,26.7706,21.8934,0.0336,,,,-99.0,,-99.0,,26.9536,,26.9545,,0.6377,85.2632,,7.533,,1.9043E+00,,1.0000E-12,,6.1562,6.1564,0.9944,,5.471,28.596,,,,,,,,,,,,
CalCOFI,2007SR,043,45,2007_043u,21-Jul-2020 03:54:40,20-Jul-2020 19:54:40,32.32286,-121.71332,086.7 080.0,086.7,080.0,495.000,499.088,,6.2041,,6.2046,,6.2044,34.2666,,34.2668,34.2678,,34.2694,34.2681,0.3782,,0.3775,0.3862,1.9709,,0.7639,0.5359,0.4611,16.445,16.6788,17.0194,85.709,,26.2278,21.6236,0.0337,,,,-99.0,,-99.0,,26.9527,,26.9536,,0.6371,85.2772,,7.533,,1.9043E+00,,1.0000E-12,,6.1599,6.1604,0.9944,,5.473,28.525,,,,,,,,,,,,
CalCOFI,2007SR,043,45,2007_043u,21-Jul-2020 03:54:42,20-Jul-2020 19:54:42,32.32286,-121.71332,086.7 080.0,086.7,080.0,494.000,498.078,,6.2080,,6.2081,,6.2081,34.2666,,34.2668,34.2679,,34.2695,34.2682,0.3813,,0.3807,0.3894,1.9708,,0.7637,0.5357,0.4626,16.582,16.8218,17.1626,85.708,,26.2254,21.6940,0.0339,,,,-99.0,,-99.0,,26.9522,,26.9533,,0.6373,85.2710,,7.533,,1.9043E+00,,1.0000E-12,,6.1639,6.1640,0.9944,,5.519,28.526,,,,,,,,,,,,
CalCOFI,2007SR,043,45,2007_043u,21-Jul-2020 03:54:43,20-Jul-2020 19:54:43,32.32286,-121.71332,086.7 080.0,086.7,080.0,493.000,497.069,,6.2176,,6.2174,,6.2175,34.2669,,34.2671,34.2684,,34.2700,34.2686,0.3853,,0.3849,0.3936,1.9716,,0.7656,0.5377,0.4657,16.758,17.0056,17.3467,85.741,,26.3061,21.8264,0.0338,,,,-99.0,,-99.0,,26.9512,,26.9525,,0.6371,85.2765,,7.533,,1.9043E+00,,1.0000E-12,,6.1736,6.1733,0.9944,,5.579,28.544,,,,,,,,,,,,
CalCOFI,2007SR,043,45,2007_043u,21-Jul-2020 03:54:44,20-Jul-2020 19:54:44,32.32286,-121.71332,086.7 080.0,086.7,080.0,492.000,496.059,,6.2385,,6.2381,,6.2383,34.2662,,34.2664,34.2677,,34.2693,34.2679,0.3894,,0.3892,0.3979,1.9703,,0.7625,0.5344,0.4662,16.936,17.1914,17.5328,85.684,,26.1667,21.8498,0.0335,,,,-99.0,,-99.0,,26.9480,,26.9492,,0.6374,85.2688,,7.533,,1.9043E+00,,1.0000E-12,,6.1944,6.1941,0.9944,,5.641,28.538,,,,,,,,,,,,
CalCOFI,2007SR,043,45,2007_043u,21-Jul-2020 03:54:44,20-Jul-2020 19:54:44,32.32286,-121.71332,086.7 080.0,086.7,080.0,491.000,495.050,,6.2502,,6.2506,,6.2504,34.2658,,34.2660,34.2672,,34.2688,34.2674,0.3865,,0.3862,0.3948,1.9694,,0.7603,0.5322,0.4635,16.807,17.0567,17.3979,85.645,,26.0714,21.7347,0.0336,,,,-99.0,,-99.0,,26.9462,,26.9472,,0.6375,85.2677,,7.533,,1.9043E+00,,1.0000E-12,,6.2062,6.2066,0.9944,,5.599,28.533,,,,,,,,,,,,
CalCOFI,2007SR,043,45,2007_043u,21-Jul-2020 03:54:45,20-Jul-2020 19:54:45,32.32286,-121.71332,086.7 080.0,086.7,080.0,490.000,494.040,,6.2753,,6.2772,,6.2763,34.2667,,34.2669,34.2681,,34.2697,34.2683,0.3840,,0.3835,0.3922,1.9677,,0.7563,0.5280,0.4601,16.698,16.9429,17.2839,85.574,,25.8978,21.5909,0.0341,,,,-99.0,,-99.0,,26.9437,,26.9445,,0.6375,85.2677,,7.533,,1.9043E+00,,1.0000E-12,,6.2313,6.2332,0.9944,,5.566,28.527,,,,,,,,,,,,
CalCOFI,2007SR,043,45,2007_043u,21-Jul-2020 03:54:46,20-Jul-2020 19:54:46,32.32286,-121.71332,086.7 080.0,086.7,080.0,489.000,493.031,,6.2907,,6.2904,,6.2906,34.2672,,34.2674,34.2683,,34.2699,34.2687,0.3868,,0.3865,0.3952,1.9668,,0.7541,0.5257,0.4605,16.822,17.0724,17.4136,85.533,,25.7975,21.6056,0.0336,,,,-99.0,,-99.0,,26.9420,,26.9430,,0.6375,85.2677,,7.533,,1.9043E+00,,1.0000E-12,,6.2467,6.2464,0.9944,,5.610,28.522,,,,,,,,,,,,
CalCOFI,2007SR,043,45,2007_043u,21-Jul-2020 03:54:47,20-Jul-2020 19:54:47,32.32286,-121.71332,086.7 080.0,086.7,080.0,488.000,492.022,,6.2923,,6.2925,,6.2924,34.2673,,34.2675,34.2685,,34.2701,34.2688,0.3915,,0.3914,0.4001,1.9664,,0.7532,0.5247,0.4624,17.025,17.2843,17.6259,85.517,,25.7584,21.6922,0.0330,,,,-99.0,,-99.0,,26.9419,,26.9428,,0.6373,85.2713,,7.534,,1.9043E+00,,1.0000E-12,,6.2484,6.2487,0.9944,,5.677,28.519,,,,,,,,,,,,
CalCOFI,2007SR,043,45,2007_043u,21-Jul-2020 03:54:48,20-Jul-2020 19:54:48,32.32286,-121.71332,086.7 080.0,086.7,080.0,487.000,491.012,,6.2941,,6.2950,,6.2946,34.2678,,34.2680,34.2692,,34.2708,34.2694,0.3865,,0.3862,0.3948,1.9660,,0.7522,0.5237,0.4593,16.808,17.0578,17.3989,85.500,,25.7168,21.5579,0.0335,,,,-99.0,,-99.0,,26.9421,,26.9430,,0.6375,85.2677,,7.534,,1.9043E+00,,1.0000E-12,,6.2503,6.2512,0.9944,,5.605,28.515,,,,,,,,,,,,
CalCOFI,2007SR,043,45,2007_043u,21-Jul-2020 03:54:50,20-Jul-2020 19:54:50,32.32286,-121.71332,086.7 080.0,086.7,080.0,486.000,490.003,,6.3051,,6.3049,,6.3050,34.2686,,34.2688,34.2698,,34.2714,34.2701,0.3862,,0.3858,0.3945,1.9604,,0.7389,0.5098,0.4522,16.797,17.0463,17.3874,85.256,,25.1203,21.2539,0.0335,,,,-99.0,,-99.0,,26.9412,,26.9422,,0.6375,85.2686,,7.535,,1.9043E+00,,1.0000E-12,,6.2614,6.2612,0.9944,,5.603,28.440,,,,,,,,,,,,
CalCOFI,2007SR,043,45,2007_043u,21-Jul-2020 03:54:51,20-Jul-2020 19:54:51,32.32286,-121.71332,086.7 080.0,086.7,080.0,485.000,488.993,,6.3184,,6.3180,,6.3182,34.2700,,34.2702,34.2712,,34.2728,34.2715,0.3877,,0.3874,0.3961,1.9618,,0.7422,0.5133,0.4547,16.858,17.1100,17.4512,85.313,,25.2596,21.3554,0.0333,,,,-99.0,,-99.0,,26.9406,,26.9416,,0.6371,85.2772,,7.535,,1.9043E+00,,1.0000E-12,,6.2747,6.2743,0.9944,,5.625,28.468,,,,,,,,,,,,
CalCOFI,2007SR,043,45,2007_043u,21-Jul-2020 03:54:52,20-Jul-2020 19:54:52,32.32286,-121.71332,086.7 080.0,086.7,080.0,484.000,487.984,,6.3350,,6.3343,,6.3347,34.2703,,34.2705,34.2716,,34.2732,34.2719,0.3945,,0.3945,0.4032,1.9552,,0.7264,0.4969,0.4501,17.154,17.4190,17.7607,85.029,,24.5653,21.1630,0.0334,,,,-99.0,,-99.0,,26.9387,,26.9399,,0.6373,85.2722,,7.536,,1.9043E+00,,1.0000E-12,,6.2914,6.2907,0.9944,,5.726,28.384,,,,,,,,,,,,
CalCOFI,2007SR,043,45,2007_043u,21-Jul-2020 03:54:53,20-Jul-2020 19:54:53,32.32286,-121.71332,086.7 080.0,086.7,080.0,483.000,486.974,,6.3487,,6.3492,,6.3490,34.2705,,34.2707,34.2716,,34.2732,34.2720,0.3902,,0.3900,0.3987,1.9556,,0.7274,0.4979,0.4483,16.968,17.2248,17.5662,85.047,,24.6093,21.0878,0.0333,,,,-99.0,,-99.0,,26.9371,,26.9379,,0.6371,85.2760,,7.536,,1.9043E+00,,1.0000E-12,,6.3051,6.3056,0.9944,,5.666,28.400,,,,,,,,,,,,
CalCOFI,2007SR,043,45,2007_043u,21-Jul-2020 03:54:54,20-Jul-2020 19:54:54,32.32286,-121.71332,086.7 080.0,086.7,080.0,482.000,485.965,,6.3596,,6.3602,,6.3599,34.2704,,34.2706,34.2715,,34.2731,34.2719,0.3908,,0.3906,0.3994,1.9562,,0.7288,0.4994,0.4494,16.993,17.2509,17.5924,85.072,,24.6704,21.1314,0.0329,,,,-99.0,,-99.0,,26.9356,,26.9364,,0.6375,85.2678,,7.537,,1.9043E+00,,1.0000E-12,,6.3160,6.3166,0.9944,,5.676,28.415,,,,,,,,,,,,
CalCOFI,2007SR,043,45,2007_043u,21-Jul-2020 03:54:54,20-Jul-2020 19:54:54,32.32286,-121.71332,086.7 080.0,086.7,080.0,481.000,484.956,,6.3728,,6.3735,,6.3732,34.2712,,34.2714,34.2722,,34.2738,34.2726,0.3973,,0.3974,0.4062,1.9559,,0.7281,0.4986,0.4524,17.276,17.5463,17.8883,85.060,,24.6411,21.2647,0.0334,,,,-99.0,,-99.0,,26.9345,,26.9352,,0.6375,85.2677,,7.537,,1.9043E+00,,1.0000E-12,,6.3293,6.3300,0.9944,,5.772,28.420,,,,,,,,,,,,
CalCOFI,2007SR,043,45,2007_043u,21-Jul-2020 03:54:55,20-Jul-2020 19:54:55,32.32286,-121.71332,086.7 080.0,086.7,080.0,480.000,483.946,,6.3833,,6.3834,,6.3834,34.2714,,34.2716,34.2724,,34.2740,34.2728,0.4034,,0.4038,0.4125,1.9549,,0.7257,0.4961,0.4543,17.544,17.8261,18.1686,85.014,,24.5286,21.3486,0.0325,,,,-99.0,,-99.0,,26.9333,,26.9341,,0.6375,85.2677,,7.537,,1.9043E+00,,1.0000E-12,,6.3398,6.3400,0.9944,,5.863,28.411,,,,,,,,,,,,
CalCOFI,2007SR,043,45,2007_043u,21-Jul-2020 03:54:56,20-Jul-2020 19:54:56,32.32286,-121.71332,086.7 080.0,086.7,080.0,479.000,482.937,,6.3875,,6.3879,,6.3877,34.2702,,34.2704,34.2712,,34.2728,34.2716,0.4015,,0.4018,0.4106,1.9539,,0.7233,0.4936,0.4521,17.461,17.7394,18.0818,84.972,,24.4259,21.2539,0.0328,,,,-99.0,,-99.0,,26.9318,,26.9325,,0.6375,85.2677,,7.537,,1.9043E+00,,1.0000E-12,,6.3441,6.3445,0.9944,,5.836,28.400,,,,,,,,,,,,
CalCOFI,2007SR,043,45,2007_043u,21-Jul-2020 03:54:57,20-Jul-2020 19:54:57,32.32286,-121.71332,086.7 080.0,086.7,080.0,478.000,481.927,,6.3965,,6.3966,,6.3966,34.2687,,34.2689,34.2697,,34.2713,34.2701,0.4006,,0.4009,0.4096,1.9535,,0.7224,0.4926,0.4511,17.423,17.6998,18.0420,84.957,,24.3893,21.2157,0.0333,,,,-99.0,,-99.0,,26.9294,,26.9302,,0.6406,85.2026,,7.537,,1.9043E+00,,1.0000E-12,,6.3532,6.3532,0.9944,,5.824,28.400,,,,,,,,,,,,
CalCOFI,2007SR,043,45,2007_043u,21-Jul-2020 03:54:58,20-Jul-2020 19:54:58,32.32286,-121.71332,086.7 080.0,086.7,080.0,477.000,480.918,,6.3971,,6.3971,,6.3971,34.2670,,34.2672,34.2680,,34.2696,34.2684,0.4041,,0.4045,0.4133,1.9544,,0.7245,0.4949,0.4541,17.573,17.8564,18.1989,84.996,,24.4846,21.3418,0.0327,,,,-99.0,,-99.0,,26.9279,,26.9288,,0.6377,85.2624,,7.537,,1.9043E+00,,1.0000E-12,,6.3539,6.3539,0.9944,,5.874,28.413,,,,,,,,,,,,
CalCOFI,2007SR,043,45,2007_043u,21-Jul-2020 03:54:59,20-Jul-2020 19:54:59,32.32286,-121.71332,086.7 080.0,086.7,080.0,476.000,479.909,,6.3954,,6.3951,,6.3953,34.2658,,34.2660,34.2672,,34.2688,34.2674,0.4078,,0.4084,0.4171,1.9547,,0.7253,0.4956,0.4564,17.737,18.0276,18.3704,85.009,,24.5164,21.4434,0.0326,,,,-99.0,,-99.0,,26.9273,,26.9283,,0.6370,85.2790,,7.537,,1.9043E+00,,1.0000E-12,,6.3523,6.3520,0.9944,,5.929,28.416,,,,,,,,,,,,
CalCOFI,2007SR,043,45,2007_043u,21-Jul-2020 03:55:01,20-Jul-2020 19:55:01,32.32286,-121.71332,086.7 080.0,086.7,080.0,475.000,478.899,,6.3936,,6.3936,,6.3936,34.2647,,34.2649,34.2657,,34.2673,34.2661,0.4142,,0.4151,0.4238,1.9542,,0.7241,0.4944,0.4591,18.011,18.3136,18.6569,84.985,,24.4577,21.5573,0.0333,,,,-99.0,,-99.0,,26.9266,,26.9274,,0.6378,85.2619,,7.537,,1.9043E+00,,1.0000E-12,,6.3506,6.3506,0.9944,,6.020,28.407,,,,,,,,,,,,
CalCOFI,2007SR,043,45,2007_043u,21-Jul-2020 03:55:02,20-Jul-2020 19:55:02,32.32286,-121.71332,086.7 080.0,086.7,080.0,474.000,477.890,,6.3925,,6.3928,,6.3927,34.2619,,34.2621,34.2633,,34.2649,34.2635,0.4186,,0.4197,0.4285,1.9558,,0.7279,0.4984,0.4635,18.206,18.5171,18.8608,85.055,,24.6289,21.7449,0.0334,,,,-99.0,,-99.0,,26.9245,,26.9256,,0.6375,85.2679,,7.537,,1.9043E+00,,1.0000E-12,,6.3496,6.3499,0.9944,,6.085,28.429,,,,,,,,,,,,
CalCOFI,2007SR,043,45,2007_043u,21-Jul-2020 03:55:03,20-Jul-2020 19:55:03,32.32286,-121.71332,086.7 080.0,086.7,080.0,473.000,476.881,,6.3873,,6.3877,,6.3875,34.2586,,34.2588,34.2598,,34.2614,34.2601,0.4191,,0.4202,0.4290,1.9570,,0.7307,0.5014,0.4652,18.225,18.5370,18.8807,85.108,,24.7584,21.8196,0.0337,,,,-99.0,,-99.0,,26.9225,,26.9235,,0.6369,85.2809,,7.537,,1.9043E+00,,1.0000E-12,,6.3445,6.3449,0.9944,,6.091,28.443,,,,,,,,,,,,
CalCOFI,2007SR,043,45,2007_043u,21-Jul-2020 03:55:04,20-Jul-2020 19:55:04,32.32286,-121.71332,086.7 080.0,086.7,080.0,472.000,475.871,,6.3962,,6.3967,,6.3965,34.2588,,34.2590,34.2598,,34.2614,34.2602,0.4208,,0.4220,0.4308,1.9610,,0.7403,0.5113,0.4711,18.302,18.6174,18.9612,85.284,,25.1887,22.0750,0.0334,,,,-99.0,,-99.0,,26.9215,,26.9223,,0.6369,85.2801,,7.537,,1.9043E+00,,1.0000E-12,,6.3534,6.3540,0.9944,,6.118,28.507,,,,,,,,,,,,
CalCOFI,2007SR,043,45,2007_043u,21-Jul-2020 03:55:05,20-Jul-2020 19:55:05,32.32286,-121.71332,086.7 080.0,086.7,080.0,471.000,474.862,,6.4020,,6.4020,,6.4020,34.2587,,34.2589,34.2597,,34.2613,34.2601,0.4226,,0.4239,0.4326,1.9544,,0.7245,0.4949,0.4638,18.380,18.6988,19.0428,84.996,,24.4846,21.7637,0.0330,,,,-99.0,,-99.0,,26.9207,,26.9215,,0.6375,85.2678,,7.537,,1.9043E+00,,1.0000E-12,,6.3593,6.3594,0.9944,,6.144,28.415,,,,,,,,,,,,
CalCOFI,2007SR,043,45,2007_043u,21-Jul-2020 03:55:05,20-Jul-2020 19:55:05,32.32286,-121.71332,086.7 080.0,086.7,080.0,470.000,473.853,,6.4042,,6.4040,,6.4041,34.2579,,34.2581,34.2590,,34.2606,34.2594,0.4196,,0.4207,0.4295,1.9544,,0.7245,0.4949,0.4622,18.246,18.5589,18.9026,84.995,,24.4822,21.6924,0.0328,,,,-99.0,,-99.0,,26.9198,,26.9207,,0.6369,85.2798,,7.537,,1.9043E+00,,1.0000E-12,,6.3616,6.3614,0.9944,,6.100,28.416,,,,,,,,,,,,
CalCOFI,2007SR,043,45,2007_043u,21-Jul-2020 03:55:06,20-Jul-2020 19:55:06,32.32286,-121.71332,086.7 080.0,086.7,080.0,469.000,472.843,,6.4122,,6.4132,,6.4127,34.2582,,34.2584,34.2596,,34.2612,34.2598,0.4255,,0.4269,0.4357,1.9544,,0.7245,0.4949,0.4653,18.506,18.8303,19.1745,84.996,,24.4846,21.8296,0.0327,,,,0.0001,,0.0000,,26.9190,,26.9199,,0.6364,85.2910,,7.537,,1.9043E+00,,1.0000E-12,,6.3697,6.3707,0.9944,,6.188,28.422,,,,,,,,,,,,
CalCOFI,2007SR,043,45,2007_043u,21-Jul-2020 03:55:08,20-Jul-2020 19:55:08,32.32286,-121.71332,086.7 080.0,086.7,080.0,468.000,471.834,,6.4236,,6.4245,,6.4241,34.2582,,34.2584,34.2594,,34.2610,34.2597,0.4218,,0.4230,0.4318,1.9562,,0.7288,0.4994,0.4656,18.342,18.6591,19.0030,85.073,,24.6729,21.8380,0.0328,,,,0.0034,,0.0000,,26.9175,,26.9183,,0.6369,85.2799,,7.537,,1.9043E+00,,1.0000E-12,,6.3811,6.3820,0.9944,,6.135,28.455,,,,,,,,,,,,
CalCOFI,2007SR,043,45,2007_043u,21-Jul-2020 03:55:09,20-Jul-2020 19:55:09,32.32286,-121.71332,086.7 080.0,086.7,080.0,467.000,470.825,,6.4224,,6.4229,,6.4227,34.2576,,34.2578,34.2588,,34.2604,34.2591,0.4281,,0.4296,0.4384,1.9537,,0.7229,0.4931,0.4658,18.617,18.9462,19.2906,84.964,,24.4064,21.8485,0.0338,,,,0.0128,,0.0000,,26.9172,,26.9180,,0.6365,85.2883,,7.537,,1.9043E+00,,1.0000E-12,,6.3800,6.3805,0.9944,,6.227,28.417,,,,,,,,,,,,
CalCOFI,2007SR,043,45,2007_043u,21-Jul-2020 03:55:10,20-Jul-2020 19:55:10,32.32286,-121.71332,086.7 080.0,086.7,080.0,466.000,469.815,,6.4277,,6.4275,,6.4276,34.2577,,34.2579,34.2590,,34.2606,34.2593,0.4256,,0.4270,0.4358,1.9537,,0.7229,0.4931,0.4645,18.508,18.8324,19.1766,84.963,,24.4039,21.7903,0.0340,,,,0.0244,,0.0000,,26.9165,,26.9175,,0.6368,85.2837,,7.537,,1.9043E+00,,1.0000E-12,,6.3854,6.3852,0.9944,,6.191,28.420,,,,,,,,,,,,
CalCOFI,2007SR,043,45,2007_043u,21-Jul-2020 03:55:11,20-Jul-2020 19:55:11,32.32286,-121.71332,086.7 080.0,086.7,080.0,465.000,468.806,,6.4413,,6.4415,,6.4414,34.2580,,34.2582,34.2593,,34.2609,34.2596,0.4250,,0.4264,0.4351,1.9550,,0.7260,0.4964,0.4658,18.485,18.8084,19.1526,85.023,,24.5506,21.8516,0.0340,,,,0.0360,,0.0000,,26.9150,,26.9160,,0.6375,85.2675,,7.537,,1.9043E+00,,1.0000E-12,,6.3991,6.3992,0.9944,,6.185,28.449,,,,,,,,,,,,